Location: Rowland
(34.5359°N, 79.2929°W)
Time: 14:37:18
(UTC+00:00)

SR - Pass Details

Date: 12 October 2022
Orbit: 577 x 875 km, 66.7° (Epoch: 28 November)

Event Time Altitude Azimuth Distance (km) Brightness Sun altitude
Rises 09:32:45 0° 327° (NNW) 3,223 - -22.9°
Reaches altitude 10° 09:35:18 10° 322° (NW) 2,244 - -22.4°
Maximum altitude 09:40:11 48° 249° (WSW) 895 - -21.4°
Exits shadow 09:40:41 46° 229° (SW) 912 ? -21.3°
Drops below altitude 10° 09:44:39 10° 175° (S) 2,047 ? -20.5°
Sets 09:46:54 0° 169° (S) 2,911 ? -20.0°
